Flag for Switzerland Weather past 2 weeks in Sarnen, Obwalden, Switzerland

Now
71 °F

Mild.


Feels Like: 74 °F
Forecast: 59 / 79 °F
Wind: 2 mph from North

Location: Giswil

Current Time: Jul 31, 2014 at 3:16:14 PM

Latest Report: Jul 31, 2014 at 2:00 PM


Visibility: N/A

Pressure: 29.95 "Hg

Humidity: 70%

Dew point: 61 °F

Location of SarnenLocation

Historic Weather in Sarnen — Graph

°F

Sarnen temperature yesterday

Maximum temperature yesterday: 65 °F (at 3:00 PM)
Minimum temperature yesterday: 58 °F (at 6:00 AM)
Average temperature yesterday: 62 °F

Past Weeks' High & Low Weather Summary

 TemperatureHumidityPressure
High87 °F (Jul 18, 4:00 PM)100% (Jul 23, 5:00 AM)30.23 "Hg (Jul 23, 5:00 AM)
Low52 °F (Jul 25, 6:00 AM)31% (Jul 18, 4:00 PM)29.75 "Hg (Jul 28, 4:00 PM)
Average65 °F83%29.96 "Hg
* Reported Jul 16 2:00 PM — Jul 31 2:00 PM, Sarnen, Weather by CustomWeather, © 2014

Note: Actual official high and low records may vary slightly from our data, if they occured in-between our weather recording intervals... More about our weather records

Advertising

Sarnen weather history for previous 24 hours

 ConditionsComfort  
Time TempWeatherWind HumidityBarometerVisibility
2:00 PM
Jul 31
71 °FMild.2 mph70%29.95 "HgN/A
1:00 PM69 °FMild.1 mph72%29.97 "HgN/A
12:00 PM68 °FMild.1 mph76%29.98 "HgN/A
11:00 AM67 °FMild.1 mph80%29.99 "HgN/A
10:00 AM64 °FMild.No wind94%30.01 "HgN/A
9:00 AM63 °FMild.1 mph96%30.01 "HgN/A
8:00 AM62 °FCool.No wind97%30.00 "HgN/A
7:00 AM62 °FCool.No wind99%30.01 "HgN/A
6:00 AM62 °FCool.1 mph98%30.00 "HgN/A
5:00 AM62 °FCool.1 mph99%29.99 "HgN/A
4:00 AM62 °FCool.No wind100%29.99 "HgN/A
3:00 AM62 °FCool.No wind99%29.99 "HgN/A
2:00 AM62 °FCool.1 mph99%30.00 "HgN/A
1:00 AM62 °FCool.No wind99%29.99 "HgN/A
12:00 AM62 °FCool.1 mph99%29.98 "HgN/A
11:00 PM
Jul 30
63 °FMild.1 mph98%29.98 "HgN/A
10:00 PM64 °FMild.2 mph96%29.97 "HgN/A
9:00 PM63 °FMild.1 mph97%29.94 "HgN/A
8:00 PM64 °FMild.1 mph96%29.93 "HgN/A
7:00 PM65 °FMild.1 mph90%29.91 "HgN/A
6:00 PM65 °FMild.2 mph89%29.91 "HgN/A
5:00 PM64 °FMild.1 mph90%29.92 "HgN/A
4:00 PM64 °FMild.No wind86%29.91 "HgN/A
3:00 PM65 °FMild.1 mph85%29.89 "HgN/A
Weather by CustomWeather, © 2014

See weather overviewHow to use our weather pages